Chillicothe, MO

10:34 AM CST on December 13, 2019 (GMT -0600)
Chillicothe

Weather History for KCDJ - October, 2019

Change the Weather History Date:

Thursday, October 3, 2019

  Actual Average (KIRK) Record (KIRK)
Temperature  
Mean Temperature 56 °F -  
Max Temperature 62 °F 71 °F 93 °F (1997)
Min Temperature 50 °F 48 °F 27 °F (1987)
Degree Days  
Heating Degree Days 9    
Growing Degree Days 6 (Base 50)    
Moisture  
Dew Point 49 °F    
Average Humidity 81    
Maximum Humidity 96    
Minimum Humidity 67    
Precipitation  
Precipitation 0.00 in - - ()
Sea Level Pressure  
Sea Level Pressure 30.22 in    
Wind  
Wind Speed 6 mph (NNW)    
Max Wind Speed 9 mph    
Max Gust Speed 21 mph    
Averages and records for this station are not official NWS values.
T = Trace of Precipitation, MM = Missing Value Source: NWS Daily Summary

Daily Weather History Graph

Daily Weather History Graph

Search for Another Location

Airport or City:

Astronomy

Oct. 03, 2019 Rise Set
Actual Time 7:12 AM CDT 6:53 PM CDT
Civil Twilight 6:45 AM CDT 7:20 PM CDT
Nautical Twilight 6:14 AM CDT 7:51 PM CDT
Astronomical Twilight 5:42 AM CDT 8:23 PM CDT
Moon 12:43 PM CDT (10/3) 10:34 PM CDT (10/3)
Length of Visible Light 12h 35m
Length of Day
11h 41m
Waxing Crescent, 30% of the Moon is Illuminated
Oct 3
Waxing Crescent
Oct 5
First Quarter
Oct 13
Full
Oct 21
Last Quarter
Oct 27
New

Hourly Weather History & Observations

Time (CDT) Temp. Dew Point Humidity Pressure Visibility Wind Dir Wind Speed Gust Speed Precip Events Conditions
12:52 AM 59.0 °F 55.9 °F 90% 30.03 in - Variable 4.6 mph 18.4 mph N/A   Unknown
1:52 AM 57.9 °F 54.0 °F 87% 30.05 in - North - - N/A   Unknown
2:52 AM 55.9 °F 51.1 °F 84% 30.08 in - North - - N/A   Unknown
3:52 AM 55.0 °F 50.0 °F 83% 30.09 in - NW 8.1 mph 19.6 mph N/A   Unknown
4:52 AM 53.1 °F 48.9 °F 86% 30.13 in - WNW 6.9 mph 20.7 mph N/A   Unknown
5:52 AM 51.1 °F 48.0 °F 89% 30.15 in - Variable 4.6 mph 17.3 mph N/A   Unknown
6:52 AM 51.1 °F 46.9 °F 86% 30.17 in - NW 9.2 mph 17.3 mph N/A   Unknown
7:52 AM 52.0 °F 48.0 °F 86% 30.21 in - NW 6.9 mph - N/A   Unknown
9:52 AM 53.1 °F 48.0 °F 83% 30.24 in - North 5.8 mph - N/A   Unknown
10:52 AM 54.0 °F 48.0 °F 80% 30.26 in - Variable 5.8 mph - N/A   Unknown
11:52 AM 55.0 °F 46.9 °F 74% 30.27 in - Variable 5.8 mph - N/A   Unknown
12:52 PM 55.9 °F 48.0 °F 75% 30.27 in - North 5.8 mph - N/A   Unknown
1:52 PM 55.9 °F 48.0 °F 75% 30.28 in - Variable 6.9 mph - N/A   Unknown
2:52 PM 59.0 °F 48.0 °F 67% 30.27 in - NW 8.1 mph - N/A   Unknown
3:52 PM 61.0 °F 50.0 °F 67% 30.26 in - North - - N/A   Unknown
4:52 PM 60.1 °F 48.9 °F 67% 30.27 in - Variable 5.8 mph - N/A   Unknown
5:52 PM 60.1 °F 50.0 °F 69% 30.27 in - North 3.5 mph - N/A   Unknown
6:52 PM 57.9 °F 48.9 °F 72% 30.28 in - North 5.8 mph - N/A   Unknown
7:52 PM 55.9 °F 50.0 °F 80% 30.30 in - North 3.5 mph - N/A   Unknown
9:52 PM 53.1 °F 48.0 °F 83% 30.34 in - North 3.5 mph - N/A   Unknown
10:52 PM 51.1 °F 48.9 °F 92% 30.36 in - Calm Calm - N/A   Unknown
11:52 PM 50.0 °F 48.9 °F 96% 30.36 in - Calm Calm - N/A   Unknown